Wetbulb
2.72 2.39 4.28 11.41 14.68 18.21 19.20 20.82 22.60 24.41 25.38 25.42 26.52 26.60 26.83 27.14 28.02 28.53 28.97 29.79 29.52 30.16 31.55 32.97 34.13 37.01 38.82 40.75 42.09 43.02 44.20 52.41 53.17 54.41 55.73 55.55 55.46 56.52 55.50 57.35 56.53 56.22 56.69
4.68 0.68 5.43 7.61 10.44 14.45 17.50 19.97 22.26 22.69 24.34 24.74 25.80 26.41 27.08 27.42 28.10 28.16 28.22 29.62 29.85 29.31 30.17 32.13 33.59 35.91 35.87 38.56 40.37 41.36 44.19 49.88 55.24 52.74 54.24 54.07 54.12 56.34 55.56 56.04 56.69 57.09 56.77
2.53 0.36 4.19 5.62 5.27 9.13 14.29 18.49 20.81 22.17 24.05 24.86 26.50 26.96 27.72 28.51 28.56 28.83 29.15 29.17 29.72 30.46 31.36 32.04 32.81 35.21 37.54 40.23 41.26 41.56 44.54 46.61 56.33 53.82 53.00 54.83 55.06 55.61 54.86 55.87 55.74 56.03 56.29
5.41 0.18 -0.32 3.97 5.57 8.86 13.44 17.05 19.09 21.69 23.51 24.51 27.02 28.31 29.90 30.83 31.48 32.63 32.30 30.54 30.21 30.73 31.86 32.82 33.62 33.64 35.29 38.63 40.50 41.87 44.60 44.54 55.66 54.03 53.44 53.34 54.00 54.40 54.95 54.30 54.13 55.14 54.35
8.20 3.88 5.56 4.50 6.30 8.27 12.16 15.59 18.31 21.34 23.70 25.57 27.28 28.59 29.05 30.26 31.97 32.47 33.29 33.51 32.13 31.27 31.69 32.25 33.91 35.12 38.23 40.12 41.45 42.11 43.90 43.90 55.01 53.57 52.92 52.77 52.54 52.30 51.66 54.34 54.00 54.61 54.78
8.62 10.30 7.20 6.90 7.26 8.59 11.67 14.47 17.32 20.41 22.60 24.75 26.49 26.99 27.83 30.18 32.86 34.98 34.89 34.64 35.81 33.79 31.89 32.14 33.86 35.71 38.27 41.73 42.78 43.91 45.76 46.56 54.71 53.61 53.08 51.94 52.15 52.73 53.39 53.17 53.22 52.63 51.71
9.78 8.86 9.73 8.05 10.05 9.07 10.76 13.15 15.84 18.77 21.92 24.68 26.85 27.02 27.00 28.58 32.29 34.31 34.50 33.26 35.13 37.20 34.49 34.35 35.55 36.88 39.06 41.16 43.09 44.64 45.14 46.12 51.69 55.53 53.71 53.12 52.68 53.52 53.84 52.76 52.85 53.05 52.57
10.92 8.86 6.12 6.28 9.08 10.42 10.19 12.41 15.56 18.30 21.72 25.56 25.47 26.10 26.68 27.62 32.08 32.96 35.94 36.57 37.37 38.66 37.22 36.59 36.67 38.60 40.87 42.84 43.28 43.76 46.17 47.46 54.85 56.04 56.24 55.62 55.53 55.54 55.19 54.34 53.78 53.57 53.83
14.02 9.08 6.86 4.26 5.48 8.47 10.59 12.96 16.03 18.15 21.59 24.13 25.12 24.75 25.05 25.69 30.43 34.28 35.05 34.67 38.68 39.17 41.02 39.46 40.14 40.81 43.52 44.44 44.90 45.14 47.47 51.62 52.72 52.03 52.94 52.21 51.60 52.90 54.67 54.59 52.35 51.25 50.23
16.14 14.30 10.92 7.91 4.34 5.20 8.95 12.64 15.62 18.78 19.95 22.07 23.10 24.14 26.05 24.24 29.96 34.94 33.57 30.97 30.64 34.44 36.66 40.75 43.79 44.61 45.56 46.51 46.79 46.56 46.75 55.03 54.32 53.40 52.96 50.55 51.00 52.34 50.39 54.92 53.34 50.36 49.68
18.75 18.11 16.71 14.96 9.94 6.74 6.18 5.96 14.74 18.19 18.59 19.26 20.37 22.83 23.59 25.16 27.43 33.33 33.55 28.60 27.27 31.18 32.03 32.81 36.99 45.75 46.53 46.58 46.56 47.97 55.45 56.28 53.75 54.01 53.80 53.43 53.31 53.60 53.30 54.22 54.22 52.95 50.48
18.76 17.94 17.01 16.15 16.89 16.38 5.78 11.70 14.00 16.73 17.96 18.31 19.18 20.49 23.03 24.24 29.21 31.14 32.76 31.81 30.73 26.77 29.32 31.17 34.32 40.70 40.58 40.96 44.14 50.48 50.67 53.35 55.73 54.49 52.97 52.30 52.41 52.76 53.12 53.65 53.97 54.30 54.44
17.29 16.38 15.94 16.27 17.89 16.61 10.89 12.08 14.67 16.28 16.99 18.57 18.44 18.44 20.81 23.22 25.32 29.87 30.02 30.51 30.07 24.76 27.46 31.09 33.36 34.02 34.38 33.21 35.29 37.40 40.84 51.82 53.96 53.19 52.33 52.24 52.92 53.70 53.64 53.37 53.84 53.88 53.59
15.84 15.43 15.77 14.80 15.21 13.68 18.76 17.24 13.04 17.40 18.04 19.51 18.60 17.93 20.35 21.53 22.91 25.22 24.82 24.88 26.15 24.62 25.08 25.25 28.44 29.81 30.71 30.13 27.89 28.81 30.48 32.92 35.87 44.49 49.60 50.96 53.62 53.08 52.33 52.87 51.95 51.89 51.25
16.29 16.24 15.58 17.25 13.10 13.76 16.21 12.54 11.73 16.36 23.03 19.28 20.64 19.41 19.65 19.54 21.70 26.17 26.21 23.35 23.82 24.65 22.41 21.57 20.94 21.42 21.63 22.78 23.62 23.53 25.40 26.20 27.30 30.39 33.29 36.52 38.77 44.93 47.64 50.32 52.22 51.52 50.43
16.55 16.96 15.91 14.95 12.17 15.35 14.53 14.61 22.44 24.21 25.33 25.70 25.96 24.21 22.27 25.23 25.48 25.27 25.54 26.39 25.25 24.94 19.05 17.39 17.23 18.02 18.23 19.55 20.25 21.00 21.51 23.15 23.64 25.25 26.06 28.53 32.00 34.44 35.45 36.06 39.85 47.57 50.18
15.96 15.92 14.36 14.68 12.41 11.62 12.75 13.71 12.64 17.15 22.70 23.94 24.62 24.79 24.70 24.33 24.16 23.35 22.97 22.63 24.11 20.37 15.34 15.62 15.67 16.31 17.27 18.46 19.06 19.38 19.20 20.58 22.31 22.48 23.06 24.21 26.41 29.28 30.79 31.47 33.42 35.79 37.54
16.63 20.25 15.37 12.01 13.26 12.65 13.79 14.25 14.14 13.61 12.84 14.16 20.56 21.93 23.24 23.14 22.69 22.21 21.10 18.14 13.55 15.59 14.47 13.93 14.37 15.64 16.33 17.15 18.31 18.64 19.12 19.47 19.50 20.41 20.94 22.01 23.39 24.76 25.67 26.81 28.64 29.93 31.62
15.58 13.16 12.05 11.08 12.93 15.30 15.32 14.94 14.50 13.88 12.85 12.72 14.68 17.36 19.47 20.78 20.66 20.55 19.63 12.71 11.45 11.84 12.44 12.81 13.34 14.25 15.29 16.47 17.47 18.59 18.90 19.01 18.77 18.73 19.19 19.89 21.31 22.12 22.26 23.72 25.01 28.11 28.46
15.10 17.49 15.92 11.97 12.34 12.31 12.75 13.38 12.81 11.91 10.47 12.36 13.58 15.32 14.32 14.78 12.39 12.19 12.81 12.61 11.85 11.74 12.08 11.84 12.31 12.76 13.24 14.29 15.52 16.72 17.68 17.78 17.52 17.78 17.99 18.81 19.71 20.70 20.16 21.01 21.96 22.63 24.18
14.70 15.59 18.03 12.86 11.24 10.98 10.18 10.66 11.10 11.56 10.81 11.30 12.06 18.71 20.26 12.68 12.23 12.04 11.83 12.08 12.01 11.95 12.07 11.71 11.35 11.71 12.21 12.52 13.05 14.29 15.76 17.18 17.47 16.88 17.09 17.52 18.32 18.44 20.26 20.12 20.31 21.38 22.51
14.71 14.69 14.96 12.96 12.92 11.99 11.07 9.46 7.42 8.00 7.77 8.12 9.09 14.72 18.67 12.53 12.14 12.17 12.23 11.96 12.18 12.53 12.86 12.38 11.27 10.25 10.36 10.49 10.81 11.74 13.17 14.79 16.87 16.77 16.33 17.00 17.04 18.01 18.01 18.33 18.66 18.80 19.67
13.45 13.64 13.06 12.93 13.62 16.45 12.64 11.15 10.27 7.17 6.53 7.77 8.35 11.89 11.97 10.48 11.12 11.01 11.51 11.16 10.30 11.13 11.57 12.11 10.72 9.27 9.67 9.50 9.24 8.82 10.73 12.61 16.73 17.01 15.87 16.04 15.93 17.39 16.63 15.88 16.07 16.37 16.85
11.61 11.15 11.03 10.21 12.27 10.68 11.40 9.81 10.65 13.94 10.54 8.95 8.67 10.33 7.95 6.83 8.23 8.29 8.79 8.82 9.23 8.37 7.86 8.54 9.16 7.18 7.32 7.78 9.03 9.68 10.14 13.72 17.59 17.65 14.35 15.16 15.33 15.73 15.72 15.72 14.66 14.42 15.08
9.31 9.72 9.76 9.76 11.68 11.34 12.32 9.38 8.15 8.00 9.19 9.60 9.38 8.44 6.82 6.52 5.70 5.86 4.72 4.98 4.41 4.95 5.68 5.79 5.74 4.11 2.35 2.08 4.78 6.48 12.41 21.46 19.74 18.57 13.71 14.16 13.86 13.84 14.60 13.76 13.64 13.26 11.66
9.03 9.78 9.58 9.96 9.27 9.31 9.46 8.22 6.44 5.69 5.51 7.59 6.22 4.69 4.73 4.73 5.28 5.00 4.65 3.58 2.09 2.97 2.18 3.00 1.93 0.24 1.69 2.40 2.80 12.35 20.22 20.21 19.46 22.67 14.02 11.81 11.46 12.19 13.81 11.61 11.59 12.04 10.81
MSLP
1023.52 1023.51 1023.22 1023.03 1022.81 1022.42 1021.83 1021.11 1020.40 1019.82 1019.42 1018.92 1018.37 1017.89 1017.37 1016.83 1016.58 1016.34 1015.86 1015.64 1015.22 1014.72 1014.44 1014.12 1013.38 1013.26 1012.87 1012.56 1012.25 1012.21 1011.99 1010.37 1007.43 1008.36 1008.81 1009.19 1010.12 1011.81 1011.68 1012.69 1013.91 1014.60 1015.32
1023.10 1023.23 1023.19 1022.97 1022.51 1022.01 1021.47 1020.68 1019.91 1019.32 1018.79 1018.27 1017.68 1016.98 1016.23 1015.61 1015.12 1014.66 1014.14 1013.88 1013.35 1013.01 1012.71 1012.60 1011.70 1012.09 1011.62 1011.42 1011.23 1011.03 1011.08 1009.58 1006.54 1006.93 1007.74 1008.80 1009.44 1010.66 1010.69 1011.69 1013.16 1013.77 1014.41
1023.02 1023.21 1023.06 1022.73 1022.21 1021.66 1021.03 1020.06 1019.41 1018.85 1018.01 1017.18 1016.38 1015.60 1014.76 1014.06 1013.41 1012.88 1012.35 1011.84 1011.42 1011.02 1010.85 1010.66 1010.07 1010.19 1009.44 1009.25 1009.17 1008.85 1008.60 1008.72 1005.45 1005.78 1006.76 1007.65 1008.48 1010.09 1010.01 1011.02 1012.43 1013.09 1013.77
1022.79 1023.07 1023.27 1022.50 1021.76 1021.32 1020.30 1019.67 1018.97 1018.02 1017.06 1016.17 1015.19 1014.28 1013.39 1012.40 1011.41 1010.64 1010.04 1009.40 1008.92 1008.81 1008.78 1008.60 1008.14 1008.19 1007.92 1007.96 1008.27 1007.86 1007.29 1008.03 1004.66 1004.85 1005.66 1006.71 1007.38 1009.09 1009.11 1009.69 1011.80 1012.43 1013.16
1022.66 1022.80 1022.38 1021.71 1021.15 1020.70 1019.95 1019.26 1018.34 1017.15 1016.13 1015.14 1014.21 1013.30 1012.19 1011.00 1009.88 1008.86 1008.00 1007.06 1006.31 1006.05 1006.27 1006.16 1005.96 1006.02 1005.60 1005.51 1005.49 1004.66 1006.06 1004.91 1003.96 1003.51 1004.26 1005.50 1006.68 1007.70 1007.78 1008.74 1010.54 1011.55 1012.38
1021.95 1021.92 1021.49 1021.22 1020.73 1020.16 1019.49 1018.72 1017.58 1016.47 1015.44 1014.57 1013.52 1012.52 1011.06 1009.77 1008.60 1007.18 1005.95 1004.64 1003.58 1003.25 1003.16 1003.43 1003.65 1003.52 1003.51 1003.33 1003.24 1003.24 1002.78 1003.95 1002.27 1001.36 1002.32 1003.18 1004.57 1005.02 1006.93 1007.82 1009.16 1010.23 1011.39
1021.08 1021.16 1021.11 1020.70 1020.46 1019.74 1019.08 1018.28 1017.11 1016.06 1014.84 1013.86 1012.61 1011.48 1010.24 1008.86 1007.25 1005.19 1003.60 1002.10 1000.75 999.67 1000.10 1000.62 1000.92 1000.89 1001.29 1001.33 1001.81 1002.16 1003.00 1003.24 1001.46 999.20 1000.24 1001.12 1002.77 1003.51 1005.50 1006.93 1007.70 1008.35 1009.44
1020.29 1020.55 1020.63 1020.35 1019.93 1019.12 1018.69 1017.80 1016.61 1015.58 1014.62 1013.30 1012.00 1010.87 1009.61 1008.01 1005.97 1003.55 1000.64 997.09 996.03 996.49 997.20 997.82 998.33 998.38 998.58 998.96 999.71 1000.27 1001.48 1001.25 999.11 998.01 998.04 999.37 1000.84 1002.66 1003.43 1004.40 1005.69 1006.96 1008.24
1019.53 1019.81 1019.87 1019.76 1019.49 1018.83 1018.14 1017.21 1016.11 1015.36 1014.30 1012.93 1011.65 1010.47 1009.24 1007.46 1005.38 1002.31 998.53 995.19 993.23 993.96 994.29 995.03 995.43 995.52 995.59 996.91 997.71 998.47 998.45 998.33 996.43 996.86 997.49 998.97 999.65 1001.37 1002.48 1004.27 1005.34 1006.30 1007.42
1018.59 1018.84 1018.79 1018.76 1019.13 1018.45 1017.76 1016.95 1015.99 1015.23 1014.29 1012.84 1011.30 1010.27 1008.70 1006.78 1004.90 1002.11 998.92 995.31 994.24 993.41 993.09 992.42 992.45 992.53 993.16 993.72 994.56 995.76 996.84 994.95 995.60 997.05 998.19 999.16 1000.07 1001.09 1001.86 1002.45 1003.72 1004.73 1006.26
1017.77 1018.00 1018.12 1018.12 1018.16 1017.63 1017.34 1016.66 1015.96 1015.06 1013.97 1012.92 1011.41 1009.94 1008.28 1006.38 1004.20 1001.86 998.89 996.24 995.25 993.57 993.15 993.00 991.57 990.47 991.30 992.50 994.20 995.70 993.77 994.07 995.38 996.41 997.86 998.84 999.75 1000.68 1001.58 1001.96 1002.56 1003.20 1004.53
1017.37 1017.56 1017.82 1017.78 1017.51 1017.15 1017.24 1016.65 1015.82 1014.72 1013.52 1012.62 1011.30 1009.75 1007.97 1005.35 1003.65 1001.02 999.25 997.17 995.53 994.28 993.66 991.77 991.62 989.53 991.43 993.50 993.59 993.78 992.77 993.99 994.95 995.51 996.87 998.02 998.81 999.75 1000.87 1001.51 1002.20 1002.94 1003.39
1017.12 1017.33 1017.52 1017.48 1017.20 1017.01 1016.90 1016.52 1015.76 1014.50 1013.41 1012.56 1011.40 1009.94 1008.34 1006.10 1004.14 1001.93 999.92 998.19 997.34 997.04 997.12 997.04 994.58 993.46 993.47 994.02 993.78 993.00 993.39 994.09 994.42 995.07 996.56 997.06 997.45 998.35 999.91 1001.07 1001.78 1002.62 1003.05
1016.88 1017.19 1017.20 1017.24 1017.06 1016.95 1016.51 1016.18 1015.47 1014.62 1013.73 1012.59 1011.69 1010.50 1009.36 1007.74 1006.00 1004.38 1002.29 1000.11 999.10 997.40 996.53 995.10 994.30 994.50 994.59 995.08 994.48 995.46 996.07 996.27 996.70 996.90 996.79 997.15 997.56 998.51 999.39 1000.20 1001.30 1002.22 1002.94
1016.73 1016.97 1017.15 1017.03 1016.98 1016.84 1016.66 1016.25 1015.44 1014.70 1013.62 1013.22 1012.43 1011.73 1010.81 1009.67 1008.27 1007.18 1005.37 1003.11 1001.97 1001.17 999.47 997.68 997.61 997.76 998.00 998.78 999.15 999.18 998.80 998.92 999.04 999.25 999.66 999.29 999.22 999.22 999.76 999.97 1000.66 1001.60 1001.88
1016.67 1016.87 1017.10 1017.13 1016.91 1016.74 1016.74 1016.40 1015.79 1015.04 1014.22 1013.61 1013.03 1012.21 1011.81 1011.73 1010.57 1009.01 1007.75 1006.21 1004.51 1003.43 1002.11 1002.35 1002.24 1002.25 1002.60 1003.25 1002.98 1002.62 1002.24 1002.77 1002.58 1002.41 1002.11 1001.89 1001.43 1001.13 1001.35 1001.43 1001.28 1001.26 1001.64
1016.57 1016.86 1017.01 1017.19 1017.24 1017.07 1016.89 1016.65 1016.62 1016.16 1015.54 1014.46 1013.39 1013.15 1012.76 1012.84 1011.96 1011.06 1009.52 1008.80 1007.83 1006.55 1005.91 1006.48 1006.43 1006.53 1006.61 1006.56 1005.78 1005.29 1005.29 1005.85 1005.45 1004.50 1004.40 1004.23 1003.70 1003.21 1002.87 1002.90 1002.83 1002.76 1002.72
1016.50 1016.68 1016.99 1017.20 1017.30 1017.38 1017.27 1016.99 1016.80 1016.71 1016.61 1016.42 1015.57 1014.39 1013.62 1012.25 1012.31 1011.97 1011.43 1010.29 1009.07 1008.97 1009.25 1009.48 1009.61 1009.27 1008.79 1008.25 1008.04 1008.34 1007.56 1007.07 1006.65 1006.40 1006.57 1006.27 1006.03 1005.69 1005.07 1004.65 1004.51 1004.92 1004.48
1016.65 1016.81 1017.06 1017.28 1017.39 1017.39 1017.51 1017.50 1017.33 1017.05 1016.76 1016.59 1016.33 1015.47 1014.41 1013.49 1012.70 1012.24 1012.29 1012.18 1012.59 1012.57 1012.25 1011.89 1011.85 1011.68 1011.14 1010.41 1009.78 1009.45 1008.89 1008.72 1008.86 1008.84 1008.49 1008.11 1008.14 1007.69 1007.02 1006.53 1006.40 1006.38 1006.22
1016.84 1016.82 1017.12 1017.38 1017.59 1017.67 1017.70 1017.84 1018.01 1017.89 1017.43 1016.81 1016.10 1015.71 1015.82 1015.24 1013.97 1013.36 1012.75 1012.69 1013.05 1013.38 1013.37 1013.52 1013.78 1013.54 1012.83 1012.14 1011.76 1011.59 1011.32 1011.15 1011.15 1011.12 1010.14 1009.55 1009.77 1009.09 1008.22 1008.09 1007.97 1007.85 1007.78
1017.01 1016.85 1016.94 1017.38 1017.71 1017.95 1018.09 1018.20 1018.20 1018.22 1018.12 1017.84 1017.30 1016.28 1016.10 1016.09 1016.18 1015.87 1014.73 1014.62 1014.75 1014.97 1014.42 1014.32 1014.17 1013.97 1014.14 1013.90 1013.42 1013.58 1013.57 1013.51 1013.09 1012.05 1010.76 1010.71 1010.45 1010.38 1010.00 1009.67 1009.51 1009.20 1009.06
1017.25 1017.25 1017.31 1017.58 1017.89 1018.14 1018.36 1018.56 1018.65 1018.63 1018.44 1018.26 1017.97 1017.54 1017.24 1017.32 1017.29 1017.27 1017.25 1017.01 1016.49 1015.93 1015.65 1015.66 1015.47 1015.44 1015.60 1015.43 1015.25 1015.10 1014.54 1013.71 1012.98 1012.77 1012.17 1011.87 1011.30 1011.51 1011.12 1010.56 1010.34 1010.28 1010.43
1017.53 1017.64 1017.78 1017.93 1018.10 1018.30 1018.50 1018.74 1018.93 1019.02 1019.02 1018.89 1018.75 1018.60 1018.40 1018.31 1018.11 1018.10 1018.13 1018.13 1017.92 1017.56 1017.02 1016.51 1016.67 1016.65 1016.42 1016.10 1015.85 1015.42 1014.92 1014.06 1013.39 1013.24 1012.91 1012.64 1012.01 1011.68 1012.19 1011.96 1011.22 1011.09 1011.34
1017.87 1018.08 1018.24 1018.38 1018.45 1018.60 1018.80 1018.98 1019.15 1019.17 1019.30 1019.26 1019.25 1019.29 1019.31 1019.24 1019.08 1018.92 1018.69 1018.48 1018.39 1018.33 1018.32 1018.18 1017.88 1017.39 1016.86 1016.47 1016.01 1015.27 1014.60 1013.81 1013.74 1013.83 1013.78 1013.66 1013.27 1013.41 1013.35 1013.05 1012.39 1012.27 1012.10
1018.30 1018.54 1018.63 1018.77 1018.92 1019.13 1019.37 1019.55 1019.69 1019.73 1019.72 1019.66 1019.63 1019.62 1019.52 1019.47 1019.45 1019.37 1019.30 1019.18 1019.03 1018.83 1018.53 1018.23 1018.01 1017.86 1017.80 1017.54 1016.94 1016.04 1015.21 1014.41 1014.29 1014.60 1014.38 1014.30 1014.25 1013.90 1013.82 1013.38 1012.90 1012.57 1012.64
1018.82 1019.01 1019.21 1019.34 1019.54 1019.75 1019.99 1020.20 1020.35 1020.39 1020.35 1020.24 1020.12 1020.01 1019.90 1019.84 1019.66 1019.52 1019.39 1019.24 1019.15 1019.06 1018.85 1018.65 1018.53 1018.33 1018.04 1017.77 1017.44 1016.59 1015.78 1015.51 1014.92 1014.36 1014.67 1014.59 1014.48 1014.43 1014.04 1013.98 1013.63 1013.02 1012.79
Wind_Speed
3 4 4 6 6 8 9 10 10 11 12 14 14 17 16 17 16 17 18 19 21 21 21 20 22 21 16 14 13 14 17 19 14 10 13 12 19 16 14 15 13 13 12
4 3 5 6 6 7 9 10 11 12 13 14 15 17 17 18 18 20 20 19 22 24 25 23 24 17 22 19 15 20 19 23 14 18 13 11 17 19 17 17 13 12 11
3 3 5 7 6 7 9 11 12 13 13 14 15 16 18 19 20 21 22 23 24 25 24 23 25 25 22 17 17 17 15 18 16 11 13 13 15 15 14 14 14 14 10
3 3 5 6 6 7 9 11 12 12 13 14 15 16 17 18 18 19 21 25 25 25 25 26 25 27 26 22 20 21 18 19 17 14 13 14 15 16 13 16 13 9 10
3 4 6 7 6 7 8 11 12 12 12 14 15 15 16 16 14 16 19 22 26 26 26 29 27 32 35 30 17 18 23 16 19 15 14 13 14 15 16 13 14 11 11
4 6 5 6 6 7 8 11 11 12 13 14 14 15 17 13 27 33 28 19 21 26 27 29 28 37 35 39 36 34 24 21 28 18 16 18 20 17 15 15 13 13 10
4 5 6 6 7 7 8 10 10 12 13 15 14 16 17 18 32 38 41 25 26 24 27 25 24 22 33 27 35 38 33 42 41 25 22 19 20 20 18 19 16 17 12
5 5 5 5 6 6 7 9 10 10 13 13 14 16 17 17 35 43 45 27 22 23 26 27 28 27 28 28 26 25 28 30 30 20 23 23 20 22 23 21 22 20 13
5 5 5 4 6 6 8 10 11 9 11 12 13 16 16 17 35 39 31 12 8 24 22 28 28 28 34 38 24 26 23 28 24 23 20 22 21 30 23 14 14 14 11
5 4 4 4 4 6 7 9 7 8 10 10 13 13 21 19 28 33 24 9 9 3 4 2 39 29 30 28 20 18 25 22 18 14 10 12 16 22 25 20 16 15 12
4 2 3 4 4 5 5 4 7 9 9 10 13 13 15 20 20 33 33 13 13 9 8 7 7 24 28 26 30 22 24 19 21 17 13 12 13 14 13 13 15 15 14
4 3 2 4 4 4 3 6 8 8 8 10 12 12 13 19 28 33 36 33 30 16 14 12 13 32 29 20 4 35 21 20 12 15 14 13 13 14 14 14 14 13 12
3 3 3 3 4 4 4 6 6 7 7 9 11 11 13 15 16 35 36 36 32 14 11 19 25 31 31 23 32 31 21 5 12 12 12 12 13 13 14 14 12 13 10
4 3 4 2 3 4 4 4 4 6 7 9 10 12 12 14 16 16 16 16 26 21 25 21 30 29 36 28 25 21 14 13 11 4 5 4 6 8 10 11 11 11 9
4 3 1 3 3 4 4 3 3 5 11 9 9 9 12 13 16 25 25 16 15 20 17 18 20 20 20 18 16 17 16 15 14 12 9 7 6 3 3 4 9 9 11
4 3 2 1 3 3 3 4 11 14 18 21 22 18 11 24 27 27 29 33 33 29 18 17 17 18 18 15 15 14 16 17 13 12 11 10 8 7 6 5 4 1 9
4 3 1 2 1 3 3 3 3 6 15 20 23 23 24 23 27 27 27 27 33 23 17 15 16 14 13 12 12 14 14 12 12 12 12 12 10 8 9 8 7 6 5
3 7 3 1 1 2 2 3 3 4 5 5 12 19 22 26 27 28 27 18 16 19 14 14 13 13 13 12 12 11 11 12 12 12 12 12 11 9 9 8 9 7 5
4 2 2 1 0 2 3 3 3 4 5 4 3 11 17 22 25 27 26 13 12 12 12 12 12 11 11 11 12 11 13 13 12 10 11 11 10 9 10 9 9 13 11
2 8 5 1 1 2 2 3 3 3 4 6 7 7 8 11 12 13 13 12 12 11 10 10 10 10 10 11 10 10 10 12 11 9 9 9 9 9 10 10 9 9 8
2 0 8 2 2 2 2 3 2 3 3 4 5 9 20 9 8 8 10 11 10 9 9 9 9 9 9 9 9 9 8 8 9 9 10 8 9 9 8 8 8 8 7
2 2 3 3 3 3 3 3 2 2 3 4 3 8 17 6 6 6 7 7 7 7 7 7 7 6 7 7 7 7 7 8 8 9 8 8 8 8 8 8 7 7 7
3 3 3 2 2 5 4 3 2 2 2 3 3 5 5 5 6 5 5 4 4 5 6 7 6 6 5 5 5 4 7 7 7 7 7 8 8 8 7 7 7 7 7
3 3 3 2 2 2 3 3 2 5 4 3 3 4 3 3 4 5 5 5 4 3 2 3 4 7 6 7 7 7 6 5 3 5 5 6 6 8 5 6 6 6 5
3 3 3 3 3 3 4 3 3 3 3 3 4 4 3 3 3 3 3 3 4 4 6 5 3 4 4 7 9 12 13 17 10 4 2 5 6 7 6 5 6 6 4
3 4 3 3 4 4 4 3 3 3 3 3 3 3 3 3 3 3 4 3 3 3 4 2 3 7 8 5 7 11 14 13 11 7 4 3 4 5 4 6 7 6 7
Wind_Direction
264 274 294 291 287 287 285 283 283 288 284 282 279 277 271 268 261 255 249 247 248 250 248 245 247 241 236 238 246 252 246 266 206 196 194 179 179 191 171 178 182 187 192
260 277 285 289 291 292 290 288 288 284 282 278 275 275 272 268 262 256 252 247 246 244 246 244 244 237 244 238 238 239 236 264 211 182 182 180 181 188 175 172 185 188 190
251 276 295 295 298 292 286 297 291 285 284 286 283 279 274 265 258 250 249 245 243 242 243 238 241 242 230 228 226 234 239 263 213 177 185 183 182 192 168 169 183 191 194
238 274 282 287 288 284 295 294 287 287 290 291 286 282 276 276 272 263 251 242 238 238 238 237 235 234 238 231 222 229 237 248 218 186 182 183 180 193 179 170 183 189 189
240 269 276 281 284 280 290 288 287 293 292 294 289 286 287 280 275 269 261 252 237 235 233 237 232 233 234 230 229 229 231 238 224 185 180 176 181 183 184 173 185 183 194
230 265 273 280 288 288 290 292 298 300 297 298 293 293 297 293 293 293 290 273 250 233 228 230 231 230 231 234 227 235 232 233 214 185 180 179 184 176 178 179 179 179 188
238 265 277 277 289 288 289 294 303 306 307 303 303 303 302 301 303 305 301 281 261 238 221 223 221 224 226 222 226 228 238 238 244 186 184 183 174 175 174 180 187 182 184
244 266 271 284 286 294 296 296 305 307 308 303 311 311 307 308 310 309 297 272 234 220 215 217 220 221 218 214 217 218 235 231 217 188 186 177 175 180 180 179 180 181 185
250 247 266 273 292 303 305 312 310 311 313 313 311 315 310 308 311 311 326 311 210 216 211 212 216 221 220 206 207 211 226 241 190 182 174 177 167 178 175 170 181 175 173
231 244 261 268 286 296 298 311 302 312 312 317 316 316 313 313 313 339 348 360 3 27 14 208 209 209 206 205 203 210 249 194 170 172 157 153 167 178 175 180 172 174 168
226 252 288 295 290 276 302 292 312 315 313 330 324 322 321 326 326 352 14 13 8 13 25 6 324 204 200 208 210 223 206 171 174 170 170 170 172 176 187 189 180 177 179
215 272 303 308 313 325 341 317 314 316 324 343 340 337 340 339 345 358 8 21 18 26 14 5 18 69 74 54 334 222 160 164 170 173 175 179 179 179 191 189 184 192 198
201 259 292 316 326 335 337 324 325 330 339 345 350 349 353 351 351 357 1 16 17 30 31 42 50 54 61 52 41 50 51 154 170 175 178 180 183 179 176 187 184 191 188
193 231 285 325 343 348 324 311 323 340 8 350 353 358 3 360 0 357 1 4 13 13 14 19 34 44 52 41 39 32 37 35 41 27 130 116 156 166 172 176 188 182 185
191 220 277 311 345 343 343 287 298 317 18 8 11 7 7 11 8 11 16 12 20 20 23 31 33 29 32 30 34 31 30 29 32 26 24 40 57 55 99 175 180 189 193
178 193 217 316 340 4 359 356 16 28 18 19 17 26 18 28 25 21 24 33 30 32 38 36 38 34 35 28 30 28 34 28 29 32 29 24 31 52 54 30 34 185 196
162 176 248 99 49 4 353 9 18 12 36 17 20 21 24 28 35 35 31 35 41 36 42 36 35 33 38 33 33 30 38 25 21 33 31 24 20 22 45 47 38 31 48
143 168 147 168 135 97 34 15 11 30 28 18 8 18 20 24 34 39 40 32 35 35 37 36 33 30 30 31 34 31 35 34 30 30 29 26 21 24 27 32 43 20 26
136 118 131 112 257 115 83 66 40 24 10 5 10 26 19 25 25 32 38 48 39 41 35 34 28 24 28 29 29 25 32 31 30 28 28 26 19 18 32 31 35 29 26
150 161 151 129 72 62 53 67 64 43 12 360 2 35 35 20 19 17 23 33 37 34 31 38 35 25 22 27 27 29 29 34 28 21 30 32 13 19 27 25 24 19 16
147 101 153 94 100 93 88 74 49 51 44 25 5 30 40 37 39 27 22 26 26 30 27 26 25 24 25 19 25 25 29 23 30 20 23 25 22 16 19 26 19 14 5
118 117 110 118 115 104 95 81 64 49 33 30 358 20 41 34 36 40 41 25 14 13 20 28 23 22 15 11 10 14 8 16 24 25 22 15 20 18 7 19 19 17 360
99 98 97 89 96 129 89 86 84 75 51 42 33 36 26 23 22 25 31 28 23 17 8 7 14 15 5 5 359 355 355 349 355 9 21 16 13 20 5 2 9 13 355
100 104 106 92 112 89 96 80 53 74 74 53 46 45 35 13 17 10 7 5 10 15 20 6 3 2 356 0 353 345 343 328 17 11 359 19 17 11 3 2 5 1 350
86 89 85 89 83 91 93 76 66 50 40 36 32 26 9 13 9 0 348 348 354 2 357 353 1 3 13 348 343 333 324 1 357 58 11 40 17 1 352 359 358 359 337
79 80 76 75 75 77 84 84 69 54 43 25 19 3 1 353 339 336 339 347 350 335 335 327 341 343 338 334 319 314 342 345 330 32 31 26 25 352 344 354 349 353 339